Location: Ferintosh
(52.7647°N, 112.9692°W)
Time: 22:42:04
(UTC+00:00)

A-11 Canister half - Pass Details

Date: 26 May 2024
Orbit: 1524 x 1683 km, 47.3° (Epoch: 19 June)

Event Time Altitude Azimuth Distance (km) Brightness Sun altitude
Rises 03:31:54 0° 216° (SW) 4,669 11.5 0.0°
Reaches altitude 10° 03:35:12 10° 209° (SSW) 3,698 10.9 -0.4°
Maximum altitude 03:43:28 37° 146° (SE) 2,233 9.5 -1.4°
Drops below altitude 10° 03:51:57 10° 83° (E) 3,797 10.7 -2.4°
Sets 03:55:21 0° 76° (ENE) 4,807 11.3 -2.8°
